• In Russia
  • List of Countries
  • For 7 days
  • Water Temperature
  • Satellite Maps
  • Weather Map
  • Weather Widgets
  • user-avatar
    Login

    Hourly Weather Edeleny

    Today, 22 September, Friday

    Time Temperature Precipitation Wind Pressure Humidity
    00:00 +11°C° 0 mm 1 mps 747 mmHg 88%
    01:00 +11°C° 0 mm 1 mps 747 mmHg 88%
    02:00 +11°C° 0 mm 1 mps 748 mmHg 89%
    03:00 +11°C° 0 mm 1 mps 748 mmHg 90%
    04:00 +11°C° 0 mm 1 mps 748 mmHg 90%
    05:00 +11°C° 0 mm 1 mps 748 mmHg 89%
    06:00 +12°C° 0 mm 1 mps 749 mmHg 88%
    07:00 +12°C° 0 mm 1 mps 749 mmHg 86%
    08:00 +14°C° 0 mm 1 mps 749 mmHg 80%
    09:00 +15°C° 0 mm 1 mps 749 mmHg 74%
    10:00 +17°C° 0 mm 2 mps 750 mmHg 68%
    11:00 +18°C° 0.1 mm 2 mps 750 mmHg 66%
    12:00 +18°C° 0.1 mm 2 mps 750 mmHg 63%
    13:00 +19°C° 0.1 mm 2 mps 750 mmHg 61%
    14:00 +18°C° 0.4 mm 2 mps 750 mmHg 64%
    15:00 +18°C° 0.4 mm 2 mps 750 mmHg 68%
    16:00 +19°C° 0.4 mm 1 mps 750 mmHg 71%
    17:00 +16°C° 0.3 mm 2 mps 751 mmHg 76%
    18:00 +15°C° 0.3 mm 2 mps 751 mmHg 81%
    19:00 +13°C° 0.3 mm 2 mps 751 mmHg 86%
    20:00 +13°C° 0.2 mm 1 mps 751 mmHg 87%
    21:00 +12°C° 0.2 mm 1 mps 751 mmHg 88%
    22:00 +12°C° 0.2 mm 1 mps 751 mmHg 89%
    23:00 +11°C° 0 mm 1 mps 751 mmHg 88%

    Tomorrow, 23 September, Saturday

    Time Temperature Precipitation Wind Pressure Humidity
    00:00 +11°C° 0 mm 1 mps 751 mmHg 88%
    01:00 +11°C° 0 mm 1 mps 751 mmHg 88%
    02:00 +11°C° 0 mm 1 mps 751 mmHg 88%
    03:00 +11°C° 0 mm 1 mps 751 mmHg 88%
    04:00 +11°C° 0 mm 1 mps 750 mmHg 88%
    05:00 +10°C° 0.2 mm 2 mps 750 mmHg 88%
    06:00 +12°C° 0.2 mm 2 mps 750 mmHg 88%
    07:00 +12°C° 0.2 mm 2 mps 749 mmHg 87%
    08:00 +12°C° 1.4 mm 2 mps 749 mmHg 87%
    09:00 +13°C° 1.4 mm 2 mps 749 mmHg 86%
    10:00 +13°C° 1.4 mm 3 mps 749 mmHg 85%
    11:00 +14°C° 1.6 mm 2 mps 749 mmHg 87%
    12:00 +14°C° 1.6 mm 2 mps 749 mmHg 88%
    13:00 +14°C° 1.6 mm 2 mps 749 mmHg 90%
    14:00 +14°C° 0.9 mm 2 mps 749 mmHg 91%
    15:00 +14°C° 0.9 mm 2 mps 749 mmHg 92%
    16:00 +13°C° 0.9 mm 1 mps 749 mmHg 93%
    17:00 +13°C° 0.4 mm 1 mps 749 mmHg 94%
    18:00 +13°C° 0.4 mm 1 mps 749 mmHg 95%
    19:00 +13°C° 0.4 mm 1 mps 749 mmHg 96%
    20:00 +13°C° 0.4 mm 1 mps 749 mmHg 96%
    21:00 +12°C° 0.4 mm 1 mps 749 mmHg 96%
    22:00 +12°C° 0.4 mm 1 mps 749 mmHg 96%
    23:00 +12°C° 0.7 mm 1 mps 749 mmHg 96%

    Day after tomorrow, 24 September, Sunday

    Time Temperature Precipitation Wind Pressure Humidity
    00:00 +12°C° 0.7 mm 1 mps 749 mmHg 96%
    01:00 +12°C° 0.7 mm 1 mps 749 mmHg 96%
    02:00 +12°C° 0.7 mm 1 mps 749 mmHg 96%
    03:00 +12°C° 0.7 mm 1 mps 749 mmHg 96%
    04:00 +12°C° 0.7 mm 1 mps 749 mmHg 97%
    05:00 +12°C° 0.5 mm 1 mps 749 mmHg 96%
    06:00 +13°C° 0.5 mm 2 mps 749 mmHg 96%
    07:00 +13°C° 0.5 mm 2 mps 749 mmHg 95%
    08:00 +13°C° 0.3 mm 2 mps 750 mmHg 94%
    09:00 +13°C° 0.3 mm 2 mps 750 mmHg 92%
    10:00 +14°C° 0.3 mm 2 mps 750 mmHg 91%
    11:00 +14°C° 0.3 mm 2 mps 750 mmHg 90%
    12:00 +14°C° 0.3 mm 2 mps 750 mmHg 89%
    13:00 +14°C° 0.3 mm 2 mps 750 mmHg 88%
    14:00 +14°C° 0.2 mm 2 mps 751 mmHg 87%
    15:00 +14°C° 0.2 mm 1 mps 751 mmHg 87%
    16:00 +15°C° 0.2 mm 1 mps 751 mmHg 87%
    17:00 +14°C° 0 mm 1 mps 751 mmHg 89%
    18:00 +13°C° 0 mm 1 mps 751 mmHg 92%
    19:00 +13°C° 0 mm 1 mps 752 mmHg 95%
    20:00 +13°C° 0 mm 1 mps 752 mmHg 95%
    21:00 +12°C° 0 mm 1 mps 752 mmHg 95%
    22:00 +12°C° 0 mm 1 mps 752 mmHg 96%
    23:00 +12°C° 0 mm 1 mps 752 mmHg 96%

    25 September, Monday

    Time Temperature Precipitation Wind Pressure Humidity
    00:00 +12°C° 0 mm 1 mps 753 mmHg 96%
    01:00 +12°C° 0 mm 1 mps 753 mmHg 96%
    02:00 +12°C° 0 mm 1 mps 753 mmHg 96%
    03:00 +12°C° 0 mm 1 mps 753 mmHg 96%
    04:00 +12°C° 0 mm 1 mps 753 mmHg 97%
    05:00 +12°C° 0 mm 1 mps 753 mmHg 95%
    06:00 +13°C° 0 mm 1 mps 753 mmHg 94%
    07:00 +13°C° 0 mm 1 mps 753 mmHg 93%
    08:00 +14°C° 0 mm 2 mps 753 mmHg 86%
    09:00 +16°C° 0 mm 2 mps 753 mmHg 80%
    10:00 +18°C° 0 mm 2 mps 753 mmHg 73%
    11:00 +19°C° 0 mm 2 mps 753 mmHg 68%
    12:00 +20°C° 0 mm 2 mps 753 mmHg 63%
    13:00 +21°C° 0 mm 3 mps 753 mmHg 58%
    14:00 +21°C° 0 mm 2 mps 752 mmHg 60%
    15:00 +20°C° 0 mm 2 mps 752 mmHg 62%
    16:00 +20°C° 0 mm 2 mps 752 mmHg 65%
    17:00 +19°C° 0 mm 2 mps 752 mmHg 70%
    18:00 +17°C° 0 mm 2 mps 752 mmHg 74%
    19:00 +16°C° 0 mm 2 mps 752 mmHg 79%
    20:00 +15°C° 0.1 mm 2 mps 752 mmHg 80%
    21:00 +15°C° 0.1 mm 2 mps 752 mmHg 80%
    22:00 +15°C° 0.1 mm 2 mps 752 mmHg 81%
    23:00 +14°C° 0.1 mm 2 mps 752 mmHg 80%

    26 September, Tuesday

    Time Temperature Precipitation Wind Pressure Humidity
    00:00 +14°C° 0.1 mm 2 mps 752 mmHg 80%
    01:00 +14°C° 0.1 mm 2 mps 752 mmHg 80%
    02:00 +14°C° 0.1 mm 2 mps 752 mmHg 80%
    03:00 +14°C° 0.1 mm 2 mps 752 mmHg 81%
    04:00 +13°C° 0.1 mm 2 mps 752 mmHg 81%
    05:00 +14°C° 0.1 mm 2 mps 752 mmHg 80%
    06:00 +14°C° 0.1 mm 2 mps 753 mmHg 79%
    07:00 +15°C° 0.1 mm 2 mps 753 mmHg 78%
    08:00 +16°C° 0 mm 2 mps 753 mmHg 72%
    09:00 +18°C° 0 mm 2 mps 753 mmHg 65%
    10:00 +20°C° 0 mm 2 mps 753 mmHg 58%
    11:00 +21°C° 0 mm 2 mps 753 mmHg 55%
    12:00 +23°C° 0 mm 2 mps 752 mmHg 52%
    13:00 +24°C° 0 mm 2 mps 752 mmHg 49%
    14:00 +24°C° 0 mm 2 mps 752 mmHg 52%
    15:00 +24°C° 0 mm 2 mps 752 mmHg 55%
    16:00 +23°C° 0 mm 1 mps 752 mmHg 58%
    17:00 +22°C° 0 mm 1 mps 752 mmHg 63%
    18:00 +20°C° 0 mm 1 mps 753 mmHg 68%
    19:00 +18°C° 0 mm 1 mps 753 mmHg 72%
    20:00 +16°C° 0 mm 2 mps 753 mmHg 74%
    21:00 +16°C° 0 mm 2 mps 753 mmHg 75%
    22:00 +16°C° 0 mm 2 mps 753 mmHg 76%
    23:00 +15°C° 0 mm 2 mps 753 mmHg 77%

    27 September, Wednesday

    Time Temperature Precipitation Wind Pressure Humidity
    00:00 +15°C° 0 mm 2 mps 754 mmHg 78%
    01:00 +15°C° 0 mm 2 mps 754 mmHg 79%
    02:00 +14°C° 0 mm 2 mps 754 mmHg 80%
    03:00 +14°C° 0 mm 2 mps 754 mmHg 81%
    04:00 +14°C° 0 mm 2 mps 754 mmHg 82%
    05:00 +14°C° 0 mm 2 mps 754 mmHg 80%
    06:00 +15°C° 0 mm 2 mps 754 mmHg 78%
    07:00 +15°C° 0 mm 2 mps 755 mmHg 76%
    08:00 +17°C° 0 mm 2 mps 755 mmHg 68%
    09:00 +19°C° 0 mm 2 mps 755 mmHg 60%
    10:00 +21°C° 0 mm 2 mps 755 mmHg 52%
    11:00 +23°C° 0 mm 2 mps 755 mmHg 49%
    12:00 +24°C° 0 mm 2 mps 755 mmHg 46%
    13:00 +25°C° 0 mm 2 mps 755 mmHg 44%
    14:00 +24°C° 0 mm 2 mps 755 mmHg 47%
    15:00 +24°C° 0 mm 2 mps 755 mmHg 50%
    16:00 +23°C° 0 mm 1 mps 755 mmHg 53%
    17:00 +21°C° 0 mm 1 mps 755 mmHg 57%
    18:00 +20°C° 0 mm 1 mps 755 mmHg 61%
    19:00 +18°C° 0 mm 1 mps 755 mmHg 65%
    20:00 +16°C° 0 mm 1 mps 756 mmHg 67%
    21:00 +16°C° 0 mm 1 mps 756 mmHg 69%
    22:00 +15°C° 0 mm 1 mps 756 mmHg 70%
    23:00 +15°C° 0 mm 1 mps 756 mmHg 72%
    Show more